Weather History for Waskish, MN

Change the Weather History Date:

Saturday, October 12, 2013

  Actual Average (KBDE) Record (KBDE)
Temperature  
Mean Temperature 52 °F -  
Max Temperature 59 °F 55 °F 76 °F (1943)
Min Temperature 44 °F 33 °F 11 °F (1936)
Degree Days  
Heating Degree Days 14    
Growing Degree Days 2 (Base 50)    
Moisture  
Dew Point 46 °F    
Average Humidity 88    
Maximum Humidity 94    
Minimum Humidity 76    
Precipitation  
Precipitation 0.03 in - - ()
Sea Level Pressure  
Sea Level Pressure 29.72 in    
Wind  
Wind Speed 11 mph (SW)    
Max Wind Speed 18 mph    
Max Gust Speed 28 mph    
Visibility 8 miles    
Events Rain    
Averages and records for this station are not official NWS values.
T = Trace of Precipitation, MM = Missing Value Source: NWS Daily Summary

Daily Weather History Graph

Daily Weather History Graph

Search for Another Location

Airport:

Trip Planner

Search our weather history database for the weather conditions in past years. The results will help you decide how hot, cold, wet, or windy it might be!

Date:

Astronomy

Oct. 12, 2013 Rise Set
Actual Time 7:33 AM CDT 6:34 PM CDT
Civil Twilight 7:02 AM CDT 7:05 PM CDT
Nautical Twilight 6:26 AM CDT 7:41 PM CDT
Astronomical Twilight 5:50 AM CDT 8:17 PM CDT
Moon 3:10 PM CDT (10/12) 12:09 AM CDT (10/12)
Length of Visible Light 12h 03m
Length of Day
11h 00m
First Quarter, 59% of the Moon is Illuminated
Oct 12
First Quarter
Oct 18
Full
Oct 26
Last Quarter
Nov 3
New
Nov 9
First Quarter

Hourly Weather History & Observations

Time (CDT) Temp. Windchill Dew Point Humidity Pressure Visibility Wind Dir Wind Speed Gust Speed Precip Events Conditions
12:04 AM 59.0 °F - 55.4 °F 88% 29.45 in 10.0 mi SE 9.2 mph - N/A   Mostly Cloudy
12:24 AM 59.0 °F - 55.4 °F 88% 29.45 in 10.0 mi SSE 9.2 mph - N/A   Mostly Cloudy
12:44 AM 57.2 °F - 55.4 °F 94% 29.46 in 10.0 mi SSE 10.4 mph - N/A   Scattered Clouds
1:04 AM 55.4 °F - 53.6 °F 94% 29.47 in 10.0 mi South 8.1 mph 19.6 mph N/A   Clear
1:24 AM 55.4 °F - 51.8 °F 88% 29.48 in 10.0 mi South 9.2 mph - N/A   Clear
1:44 AM 55.4 °F - 51.8 °F 88% 29.48 in 10.0 mi South 10.4 mph 19.6 mph N/A   Mostly Cloudy
2:04 AM 53.6 °F - 48.2 °F 82% 29.49 in 10.0 mi South 11.5 mph 20.7 mph N/A   Mostly Cloudy
2:24 AM 53.6 °F - 48.2 °F 82% 29.49 in 10.0 mi South 10.4 mph 20.7 mph N/A   Mostly Cloudy
2:44 AM 53.6 °F - 48.2 °F 82% 29.49 in 10.0 mi South 11.5 mph 18.4 mph N/A   Mostly Cloudy
3:04 AM 53.6 °F - 48.2 °F 82% 29.50 in 10.0 mi South 8.1 mph 16.1 mph N/A   Overcast
3:24 AM 51.8 °F - 48.2 °F 88% 29.50 in 10.0 mi South 9.2 mph 16.1 mph N/A   Overcast
3:44 AM 51.8 °F - 46.4 °F 82% 29.51 in 10.0 mi South 13.8 mph 21.9 mph N/A   Overcast
4:04 AM 51.8 °F - 46.4 °F 82% 29.52 in 10.0 mi South 6.9 mph - N/A   Overcast
4:24 AM 51.8 °F - 46.4 °F 82% 29.53 in 10.0 mi South 9.2 mph 16.1 mph N/A   Overcast
4:44 AM 51.8 °F - 46.4 °F 82% 29.53 in 10.0 mi South 9.2 mph 16.1 mph N/A   Overcast
5:04 AM 51.8 °F - 46.4 °F 82% 29.54 in 10.0 mi South 11.5 mph 17.3 mph N/A   Overcast
5:24 AM 51.8 °F - 46.4 °F 82% 29.54 in 10.0 mi South 8.1 mph 20.7 mph N/A   Overcast
5:44 AM 51.8 °F - 46.4 °F 82% 29.54 in 10.0 mi SSE 8.1 mph 19.6 mph N/A   Overcast
6:04 AM 50.0 °F - 46.4 °F 87% 29.54 in 10.0 mi South 8.1 mph 16.1 mph N/A   Overcast
6:24 AM 50.0 °F - 46.4 °F 87% 29.55 in 10.0 mi South 8.1 mph 18.4 mph N/A   Overcast
6:44 AM 50.0 °F - 46.4 °F 87% 29.55 in 10.0 mi South 10.4 mph - N/A   Overcast
7:04 AM 50.0 °F - 46.4 °F 87% 29.56 in 10.0 mi South 12.7 mph 21.9 mph N/A   Overcast
7:24 AM 50.0 °F - 46.4 °F 87% 29.56 in 10.0 mi South 6.9 mph 18.4 mph N/A   Overcast
7:44 AM 50.0 °F - 46.4 °F 87% 29.57 in 10.0 mi South 10.4 mph 18.4 mph N/A   Overcast
8:04 AM 50.0 °F - 46.4 °F 87% 29.57 in 10.0 mi South 12.7 mph 21.9 mph N/A   Overcast
8:24 AM 50.0 °F - 46.4 °F 87% 29.59 in 10.0 mi South 8.1 mph 16.1 mph N/A   Overcast
8:44 AM 50.0 °F - 46.4 °F 87% 29.59 in 10.0 mi South 6.9 mph - N/A   Overcast
9:04 AM 50.0 °F - 46.4 °F 87% 29.60 in 10.0 mi SSE 8.1 mph 17.3 mph N/A   Overcast
9:24 AM 50.0 °F - 46.4 °F 87% 29.61 in 5.0 mi South 10.4 mph - N/A   Overcast
9:44 AM 50.0 °F - 46.4 °F 87% 29.61 in 2.5 mi South 9.2 mph 16.1 mph N/A   Overcast
10:04 AM 50.0 °F - 46.4 °F 87% 29.61 in 2.5 mi South 8.1 mph - N/A   Overcast
10:24 AM 50.0 °F - 48.2 °F 94% 29.62 in 2.0 mi South 8.1 mph - N/A   Overcast
10:44 AM 50.0 °F - 48.2 °F 94% 29.62 in 2.5 mi South 5.8 mph - N/A   Overcast
11:04 AM 50.0 °F - 48.2 °F 94% 29.63 in 2.5 mi SSW 9.2 mph 17.3 mph N/A   Overcast
11:24 AM 50.0 °F - 48.2 °F 94% 29.65 in 2.0 mi SW 12.7 mph 20.7 mph 0.01 in   Drizzle
11:44 AM 50.0 °F - 48.2 °F 94% 29.66 in 7.0 mi WSW 12.7 mph 21.9 mph 0.01 in   Overcast
12:04 PM 50.0 °F - 48.2 °F 94% 29.67 in 2.5 mi WSW 13.8 mph 19.6 mph N/A Rain Light Rain
12:24 PM 50.0 °F - 48.2 °F 94% 29.68 in 3.0 mi WSW 17.3 mph 23.0 mph N/A   Overcast
12:44 PM 50.0 °F - 48.2 °F 94% 29.69 in 7.0 mi West 16.1 mph 21.9 mph N/A   Overcast
1:04 PM 50.0 °F - 48.2 °F 94% 29.70 in 7.0 mi WSW 15.0 mph 25.3 mph N/A   Overcast
1:25 PM 48.2 °F - 46.4 °F 93% 29.71 in 7.0 mi West 17.3 mph 25.3 mph N/A   Light Drizzle
1:44 PM 50.0 °F - 48.2 °F 94% 29.73 in 5.0 mi West 12.7 mph 20.7 mph N/A   Overcast
2:04 PM 48.2 °F - 46.4 °F 93% 29.74 in 4.0 mi West 15.0 mph 25.3 mph N/A   Overcast
2:25 PM 48.2 °F - 46.4 °F 93% 29.75 in 3.0 mi West 15.0 mph 27.6 mph N/A Rain Light Rain
2:44 PM 48.2 °F - 46.4 °F 93% 29.77 in 5.0 mi West 12.7 mph 23.0 mph N/A   Overcast
3:04 PM 48.2 °F - 46.4 °F 93% 29.78 in 3.0 mi West 16.1 mph 26.5 mph N/A   Light Drizzle
3:25 PM 48.2 °F - 46.4 °F 93% 29.80 in 10.0 mi West 16.1 mph 24.2 mph N/A   Light Drizzle
3:44 PM 48.2 °F - 46.4 °F 93% 29.81 in 7.0 mi West 17.3 mph 20.7 mph 0.01 in Rain Light Rain
4:04 PM 48.2 °F - 46.4 °F 93% 29.82 in 10.0 mi West 17.3 mph 24.2 mph N/A Rain Light Rain
4:25 PM 48.2 °F - 46.4 °F 93% 29.84 in 10.0 mi West 16.1 mph 23.0 mph 0.01 in   Light Drizzle
4:44 PM 46.4 °F 39.2 °F 44.6 °F 93% 29.86 in 10.0 mi West 18.4 mph 26.5 mph 0.01 in   Drizzle
5:04 PM 46.4 °F 39.8 °F 44.6 °F 93% 29.87 in 10.0 mi West 16.1 mph 23.0 mph N/A   Light Drizzle
5:24 PM 46.4 °F 41.1 °F 44.6 °F 93% 29.88 in 10.0 mi West 11.5 mph 21.9 mph N/A Rain Rain
5:44 PM 46.4 °F 40.4 °F 44.6 °F 93% 29.90 in 10.0 mi West 13.8 mph 24.2 mph N/A Rain Light Rain
6:04 PM 46.4 °F 41.1 °F 44.6 °F 93% 29.91 in 10.0 mi West 11.5 mph 21.9 mph N/A   Drizzle
6:24 PM 46.4 °F 39.5 °F 44.6 °F 93% 29.92 in 10.0 mi West 17.3 mph 26.5 mph N/A   Drizzle
6:44 PM 46.4 °F 39.2 °F 44.6 °F 93% 29.93 in 10.0 mi West 18.4 mph 24.2 mph N/A   Light Drizzle
7:04 PM 46.4 °F 40.7 °F 44.6 °F 93% 29.95 in 10.0 mi West 12.7 mph 23.0 mph N/A   Overcast
7:24 PM 46.4 °F 40.4 °F 44.6 °F 93% 29.96 in 10.0 mi West 13.8 mph 24.2 mph N/A   Overcast
7:44 PM 46.4 °F 39.5 °F 42.8 °F 87% 29.97 in 10.0 mi West 17.3 mph 24.2 mph N/A   Overcast
8:04 PM 46.4 °F 40.1 °F 42.8 °F 87% 29.98 in 10.0 mi West 15.0 mph 21.9 mph N/A   Overcast
8:24 PM 46.4 °F 40.1 °F 42.8 °F 87% 29.99 in 10.0 mi West 15.0 mph 21.9 mph N/A   Overcast
8:44 PM 46.4 °F 40.7 °F 42.8 °F 87% 30.00 in 10.0 mi West 12.7 mph 24.2 mph N/A   Overcast
9:04 PM 46.4 °F 40.1 °F 42.8 °F 87% 30.02 in 10.0 mi West 15.0 mph 18.4 mph N/A   Overcast
9:24 PM 46.4 °F 40.4 °F 41.0 °F 81% 30.03 in 10.0 mi West 13.8 mph 21.9 mph N/A   Overcast
9:44 PM 46.4 °F 40.1 °F 41.0 °F 81% 30.03 in 10.0 mi WNW 15.0 mph 20.7 mph N/A   Overcast
10:04 PM 46.4 °F 41.5 °F 41.0 °F 81% 30.05 in 10.0 mi West 10.4 mph 18.4 mph N/A   Overcast
10:24 PM 46.4 °F 40.4 °F 39.2 °F 76% 30.06 in 10.0 mi WNW 13.8 mph 21.9 mph N/A   Overcast
10:44 PM 44.6 °F 38.8 °F 39.2 °F 81% 30.07 in 10.0 mi West 11.5 mph 18.4 mph N/A   Scattered Clouds
11:04 PM 44.6 °F 38.8 °F 39.2 °F 81% 30.09 in 10.0 mi West 11.5 mph 18.4 mph N/A   Clear
11:24 PM 44.6 °F 37.4 °F 39.2 °F 81% 30.10 in 10.0 mi West 16.1 mph 20.7 mph N/A   Clear
11:44 PM 44.6 °F 38.1 °F 39.2 °F 81% 30.11 in 10.0 mi WNW 13.8 mph 21.9 mph N/A   Clear